DECAYED

STARLINK-5104, 55646 (Decayed)

Orbit data source: Space-Track

STARLINK-5104, 55646 was a payload satellite owned by SpaceX/Seattle (US) in LEO that was launched on Fri, 17 Feb 2023 UTC via an FALCON 9 launch vehicle from the Air Force Western Test Range (AFWTR). Payload-class satellites include a variety of spacecraft equipped with specific instruments for various scientific and technological missions. These include communications satellites like Starlink; space stations such as the ISS; scientific satellites like the Hubble; Earth observation satellites from companies like Planet Labs, Umbra, and HawkEye 360; GPS; miniature CubeSats for education and research; and military/defense satellites.

Not visible in the next 10 days
Identifier
55646, 2023-021U
Orbit
Decayed
Country
Flag of USUS
Related business
Manufacturer
SpaceX/Seattle
Mission
Decayed Commercial Communications
Bus & Motor
STARLINK, Unknown motor
Mass
305 kg wet, ~290 kg dry
Launch date (UTC)
2023-02-17 (3 years ago)
Launch vehicle
FALCON 9
Launch site
Air Force Western Test Range (AFWTR)
Object type
Payload
Rocket body
Debris
Shape & HBR
Box + 1 Pan, 10.1 m
Radar Cross Section
13.562 m², Large (>1 m²)

Expand to show TLE details & history
Last TLE update: 1 year ago

TLE from 1 year ago
0 STARLINK-5104
1 55646U 23021U   25110.51096093  .13336429  44529-5  28953-3 0  9996
2 55646  69.9794 262.4064 0009864 258.0699 215.0913 16.45988640120490
Epoch: 2025-04-20T12:15Z
TLE epoch observation values (Epoch: 2025-04-20T12:15:47.024Z)
Latitude
59.92035°
Longitude
10.90442°
Altitude
164.774 km
Speed
7.81 km/s
True Right ascension
02h 54m 45s
True Declination
59° 45' 27"
Sunlit
Object was in daylight at epoch
Visualization orbit readout
Latitude
Unknown
Longitude
Unknown
Altitude
Unknown
Speed
Unknown
Apparent Right ascension
Unknown
Apparent Declination
Unknown
Sunlit
N/A
Visualization observer readout
Local Sidereal Time
21:39:32
Azimuth
Unknown
Elevation
Unknown
Doppler factor
Unknown
Orbital elements
Apogee altitude
154.175 km
Perigee altitude
141.301 km
Semi-major axis
6,525.875 km
Eccentricity
0.00099
Inclination
69.9794°
RAAN
262.4064°
Arg. of periapsis
258.0699°
True anomaly
215.02638°
Mean anomaly
215.0913°
Eccentric anomaly
215.05884°
Mean motion
4.11704 °/min
Orbital period
87.44 mins
BSTAR
0.00028953
Loading maneuver chart data...
Computing Atmospheric mass density...

Documentation

Showing up to 5 results
|